TimeCST,TemperatureF,Dew PointF,Humidity,Sea Level PressureIn,VisibilityMPH,Wind Direction,Wind SpeedMPH,Gust SpeedMPH,PrecipitationIn,Events,Conditions,WindDirDegrees,DateUTC
12:15 AM,8.4,6.3,91,29.95,10.0,Calm,Calm,-,N/A,,Clear,0,2013-02-05 06:15:00
12:35 AM,9.3,6.3,87,29.93,10.0,Calm,Calm,-,N/A,,Clear,0,2013-02-05 06:35:00
12:55 AM,8.6,5.9,89,29.93,10.0,Calm,Calm,-,N/A,,Clear,0,2013-02-05 06:55:00
1:15 AM,8.6,5.5,87,29.93,10.0,Calm,Calm,-,N/A,,Clear,0,2013-02-05 07:15:00
1:35 AM,7.9,4.8,87,29.94,10.0,Calm,Calm,-,N/A,,Clear,0,2013-02-05 07:35:00
1:55 AM,7.0,4.3,89,29.92,10.0,SSW,4.6,-,N/A,,Clear,200,2013-02-05 07:55:00
2:15 AM,6.8,4.5,90,29.92,10.0,South,3.5,-,N/A,,Clear,180,2013-02-05 08:15:00
2:35 AM,8.4,5.2,87,29.90,10.0,SSE,3.5,-,N/A,,Clear,160,2013-02-05 08:35:00
2:55 AM,8.6,5.4,87,29.91,10.0,SW,4.6,-,N/A,,Clear,220,2013-02-05 08:55:00
3:15 AM,7.7,4.8,88,29.89,10.0,Calm,Calm,-,N/A,,Clear,0,2013-02-05 09:15:00
3:35 AM,7.3,4.6,89,29.89,10.0,South,4.6,-,N/A,,Clear,170,2013-02-05 09:35:00
3:55 AM,10.0,5.9,83,29.89,10.0,South,3.5,-,N/A,,Mostly Cloudy,180,2013-02-05 09:55:00
4:15 AM,12.6,6.8,78,29.90,10.0,SSW,4.6,-,N/A,,Overcast,200,2013-02-05 10:15:00
4:35 AM,13.3,7.7,78,29.89,10.0,SSW,6.9,-,N/A,,Overcast,200,2013-02-05 10:35:00
4:55 AM,13.8,9.0,81,29.90,10.0,SW,5.8,-,N/A,,Overcast,220,2013-02-05 10:55:00
5:15 AM,14.9,10.2,82,29.89,10.0,SSW,6.9,-,N/A,,Overcast,200,2013-02-05 11:15:00
5:35 AM,15.4,12.0,86,29.88,3.0,South,8.1,-,N/A,Snow,Light Snow,190,2013-02-05 11:35:00
6:15 AM,16.7,14.9,93,29.86,5.0,South,8.1,-,N/A,Snow,Light Snow,170,2013-02-05 12:15:00
6:35 AM,17.6,15.8,93,29.86,5.0,South,9.2,-,N/A,Snow,Light Snow,180,2013-02-05 12:35:00
6:55 AM,18.3,16.2,91,29.87,10.0,SSW,8.1,-,N/A,,Overcast,200,2013-02-05 12:55:00
7:15 AM,18.5,16.7,93,29.86,10.0,South,8.1,-,N/A,,Overcast,190,2013-02-05 13:15:00
7:35 AM,19.2,17.1,91,29.85,10.0,South,11.5,-,N/A,,Overcast,190,2013-02-05 13:35:00
7:55 AM,19.8,17.6,91,29.84,10.0,South,13.8,-,N/A,,Mostly Cloudy,190,2013-02-05 13:55:00
8:15 AM,20.1,18.0,91,29.84,7.0,SSW,13.8,-,N/A,,Scattered Clouds,200,2013-02-05 14:15:00
8:35 AM,19.4,17.2,91,29.84,7.0,SSW,10.4,-,N/A,,Scattered Clouds,200,2013-02-05 14:35:00
8:55 AM,21.0,18.5,90,29.83,7.0,South,11.5,-,N/A,,Clear,190,2013-02-05 14:55:00
9:15 AM,21.9,19.4,90,29.82,7.0,South,12.7,-,N/A,,Scattered Clouds,190,2013-02-05 15:15:00
9:55 AM,24.4,21.7,89,29.81,7.0,SSW,15.0,-,N/A,,Scattered Clouds,210,2013-02-05 15:55:00
10:15 AM,25.5,22.6,89,29.81,7.0,SW,13.8,-,N/A,,Scattered Clouds,220,2013-02-05 16:15:00
10:55 AM,27.7,24.1,86,29.81,7.0,WSW,13.8,-,N/A,,Overcast,240,2013-02-05 16:55:00
11:15 AM,28.4,24.6,86,29.82,7.0,WSW,17.3,-,N/A,,Overcast,250,2013-02-05 17:15:00
11:35 AM,28.4,24.8,86,29.82,7.0,WSW,17.3,-,N/A,,Overcast,250,2013-02-05 17:35:00
11:55 AM,28.8,25.0,86,29.81,7.0,WSW,17.3,21.9,N/A,,Overcast,240,2013-02-05 17:55:00
12:15 PM,29.3,25.7,86,29.80,5.0,WSW,16.1,-,N/A,,Overcast,250,2013-02-05 18:15:00
12:55 PM,30.0,25.9,85,29.80,5.0,West,18.4,-,N/A,,Overcast,260,2013-02-05 18:55:00
1:15 PM,29.3,26.4,89,29.81,1.0,West,15.0,-,N/A,Snow,Light Snow,270,2013-02-05 19:15:00
1:35 PM,29.8,27.5,91,29.81,1.5,West,13.8,-,N/A,Snow,Light Snow,270,2013-02-05 19:35:00
1:55 PM,29.8,27.3,90,29.81,3.0,West,13.8,-,N/A,Rain,Freezing Rain,270,2013-02-05 19:55:00
2:15 PM,29.8,27.0,89,29.81,4.0,West,11.5,16.1,N/A,Rain,Freezing Rain,270,2013-02-05 20:15:00
2:35 PM,30.2,27.1,88,29.82,5.0,West,12.7,-,N/A,Rain,Freezing Rain,270,2013-02-05 20:35:00
2:55 PM,30.4,26.6,86,29.84,7.0,West,12.7,-,N/A,,Overcast,280,2013-02-05 20:55:00
3:15 PM,30.4,26.4,85,29.85,7.0,West,15.0,-,N/A,,Overcast,280,2013-02-05 21:15:00
3:55 PM,29.8,25.7,85,29.88,7.0,NW,13.8,21.9,N/A,,Overcast,310,2013-02-05 21:55:00
4:15 PM,29.7,25.9,86,29.89,7.0,WNW,12.7,-,N/A,,Overcast,300,2013-02-05 22:15:00
5:15 PM,28.9,24.8,84,29.92,7.0,WNW,13.8,-,N/A,,Overcast,300,2013-02-05 23:15:00
5:35 PM,29.1,24.8,84,29.93,10.0,WNW,9.2,-,N/A,,Overcast,300,2013-02-05 23:35:00
5:55 PM,29.5,24.8,83,29.94,10.0,WNW,11.5,-,N/A,,Overcast,290,2013-02-05 23:55:00
6:15 PM,29.7,25.3,84,29.95,10.0,WNW,10.4,-,N/A,,Overcast,290,2013-02-06 00:15:00
6:35 PM,30.0,25.3,83,29.96,10.0,WNW,9.2,-,N/A,,Overcast,300,2013-02-06 00:35:00
6:55 PM,30.0,25.5,83,29.97,10.0,NW,9.2,-,N/A,,Overcast,310,2013-02-06 00:55:00
7:15 PM,29.8,26.1,86,29.98,10.0,WNW,6.9,-,N/A,,Overcast,300,2013-02-06 01:15:00
7:35 PM,29.8,25.9,85,29.99,10.0,NNW,4.6,-,N/A,,Overcast,340,2013-02-06 01:35:00
7:55 PM,30.0,25.9,85,29.99,10.0,WNW,5.8,-,N/A,,Overcast,300,2013-02-06 01:55:00
8:15 PM,30.2,26.1,85,29.99,10.0,WNW,4.6,-,N/A,,Overcast,300,2013-02-06 02:15:00
8:35 PM,30.2,26.1,85,30.00,10.0,WNW,5.8,-,N/A,,Overcast,300,2013-02-06 02:35:00
8:55 PM,30.2,25.7,83,-9999,10.0,WNW,5.8,-,N/A,,Overcast,300,2013-02-06 02:55:00
9:15 PM,30.2,25.5,83,30.02,10.0,WNW,4.6,-,N/A,,Overcast,300,2013-02-06 03:15:00
9:35 PM,30.2,25.5,83,30.03,10.0,WNW,3.5,-,N/A,,Overcast,300,2013-02-06 03:35:00
9:55 PM,29.8,25.7,85,30.04,10.0,Calm,Calm,-,N/A,,Overcast,0,2013-02-06 03:55:00
10:15 PM,30.2,24.4,79,30.05,10.0,NNW,8.1,-,N/A,,Overcast,330,2013-02-06 04:15:00
10:35 PM,30.0,23.5,77,30.05,10.0,NNW,6.9,-,N/A,,Overcast,330,2013-02-06 04:35:00
10:55 PM,29.5,23.4,78,30.05,10.0,NNW,6.9,-,N/A,,Overcast,340,2013-02-06 04:55:00
11:15 PM,29.1,22.5,76,30.06,10.0,NW,6.9,-,N/A,,Overcast,320,2013-02-06 05:15:00
11:35 PM,28.9,21.6,74,30.08,10.0,NW,4.6,-,N/A,,Overcast,310,2013-02-06 05:35:00
11:55 PM,28.8,22.1,76,30.08,10.0,NNW,3.5,-,N/A,,Overcast,340,2013-02-06 05:55:00